Flag for U.S.A. Weather past 2 weeks in Black Mountain, North Carolina, U.S.A.

Now
79 °F

Sunny.


Feels Like: 80 °F
Forecast: 63 / 81 °F
Wind: 3 mph from North

Location: Asheville Regional Airport

Current Time: Jun 30, 2015 at 1:55:41 PM

Latest Report: Jun 30, 2015 at 12:54 PM


Visibility: 10 mi

Pressure: 29.95 "Hg

Humidity: 54%

Dew point: 61 °F

Location of Black MountainLocation

Historic Weather in Black Mountain — Graph

°F

Black Mountain temperature yesterday

Maximum temperature yesterday: 80 °F (at 2:54 PM)
Minimum temperature yesterday: 55 °F (at 5:54 AM)
Average temperature yesterday: 68 °F

Past Weeks' High & Low Weather Summary

 TemperatureHumidityPressure
High90 °F (Jun 24, 3:54 PM)97% (Jun 18, 5:54 AM)30.21 "Hg (Jun 18, 5:54 AM)
Low55 °F (Jun 29, 5:54 AM)36% (Jun 22, 1:54 PM)29.77 "Hg (Jun 27, 4:54 PM)
Average74 °F71%30.02 "Hg
* Reported Jun 15 12:54 PM — Jun 30 12:54 PM, Black Mountain, Weather by CustomWeather, © 2015

Note: Actual official high and low records may vary slightly from our data, if they occured in-between our weather recording intervals... More about our weather records

Advertising

Black Mountain weather history for previous 24 hours

 ConditionsComfort  
Time TempWeatherWind HumidityBarometerVisibility
12:54 PM
Tue, Jun 30
79 °FSunny.3 mph54%29.95 "Hg10 mi
11:54 AM73 °FScattered clouds.7 mph64%29.96 "Hg10 mi
10:54 AM69 °FScattered clouds.7 mph79%29.96 "Hg10 mi
9:54 AM71 °FPassing clouds.3 mph61%29.98 "Hg10 mi
8:54 AM71 °FScattered clouds.8 mph66%29.99 "Hg10 mi
7:54 AM68 °FPartly sunny.13 mph76%29.99 "Hg10 mi
6:54 AM65 °FPassing clouds.5 mph87%29.97 "Hg10 mi
5:54 AM66 °FPassing clouds.No wind81%29.95 "Hg10 mi
4:54 AM65 °FPassing clouds.5 mph85%29.93 "Hg10 mi
3:54 AM66 °FPassing clouds.No wind81%29.93 "Hg10 mi
2:54 AM67 °FPassing clouds.5 mph81%29.94 "Hg10 mi
1:54 AM68 °FPassing clouds.5 mph78%29.94 "Hg10 mi
12:54 AM68 °FPassing clouds.3 mph78%29.96 "Hg10 mi
11:54 PM
Mon, Jun 29
69 °FClear.3 mph76%29.97 "Hg10 mi
10:54 PM71 °FClear.6 mph71%29.97 "Hg10 mi
9:54 PM72 °FMostly cloudy.5 mph68%29.96 "Hg10 mi
8:54 PM74 °FBroken clouds.6 mph64%29.94 "Hg10 mi
7:54 PM75 °FPartly sunny.7 mph62%29.94 "Hg10 mi
6:54 PM77 °FPassing clouds.8 mph56%29.93 "Hg10 mi
5:54 PM78 °FScattered clouds.8 mph54%29.93 "Hg10 mi
4:54 PM77 °FScattered clouds.8 mph54%29.94 "Hg10 mi
3:54 PM78 °FPartly sunny.10 mph48%29.96 "Hg10 mi
2:54 PM80 °FPassing clouds.6 mph41%29.96 "Hg10 mi
1:54 PM77 °FSunny.N/A42%29.98 "Hg10 mi
Weather by CustomWeather, © 2015

See weather overviewHow to use our weather pages